Home   Weather   Green Bay   Past weeks

Flag for USA Past Weather in Green Bay, Wisconsin, USA — Yesterday and Last 2 Weeks

Now
73 °F

Cloudy.


Feels Like: 72 °F
Forecast: 61 / 74 °F
Wind: 15 mph from Southwest

Location: Austin Straubel International Airport

Current Time: Aug 17, 2017 at 8:20:58 pm

Latest Report: Aug 17, 2017 at 6:53 pm


Visibility: 10 mi

Pressure: 29.56 "Hg

Humidity: 84%

Dew Point: 68 °F

Location of Green BayLocation

Past Weather in Green Bay — Graph

°F

Green Bay Temperature Yesterday

Maximum temperature yesterday: 76 °F (at 3:21 pm)
Minimum temperature yesterday: 60 °F (at 12:53 am)
Average temperature yesterday: 69 °F

High & Low Weather Summary for the Past Weeks

 TemperatureHumidityPressure
High82 °F (Aug 8, 3:53 pm)100% (Aug 3, 7:53 am)30.15 "Hg (Aug 3, 7:53 am)
Low52 °F (Aug 13, 4:53 am)42% (Aug 12, 2:53 pm)29.55 "Hg (Aug 17, 4:53 pm)
Average66 °F86%29.96 "Hg
* Reported Aug 2 6:53 pm — Aug 17 6:53 pm, Green Bay. Weather by CustomWeather, © 2017

Note: Actual official high and low records may vary slightly from our data, if they occured in-between our weather recording intervals... More about our weather records

Advertising

Green Bay Weather History for the Previous 24 Hours

Scroll right to see more
 ConditionsComfort  
Time TempWeatherWind HumidityBarometerVisibility
6:53 pm
Thu, Aug 17
73 °FCloudy.15 mph84%29.56 "Hg10 mi
5:53 pm74 °FLight rain. Mostly cloudy.14 mph79%29.55 "Hg10 mi
4:53 pm75 °FMostly cloudy.14 mph76%29.55 "Hg10 mi
3:53 pm74 °FOvercast.15 mph79%29.56 "Hg10 mi
2:53 pm76 °FMostly cloudy.12 mph72%29.56 "Hg10 mi
1:53 pm76 °FBroken clouds.12 mph80%29.58 "Hg10 mi
12:53 pm76 °FBroken clouds.9 mph77%29.58 "Hg10 mi
11:53 am74 °FLight rain. Broken clouds.8 mph88%29.61 "Hg10 mi
10:53 am78 °FBroken clouds.14 mph76%29.62 "Hg10 mi
9:53 am76 °FBroken clouds.13 mph85%29.64 "Hg10 mi
8:53 am75 °FBroken clouds.10 mph94%29.65 "Hg10 mi
7:53 am72 °FPassing clouds.9 mph100%29.65 "Hg10 mi
7:22 am72 °FScattered clouds.12 mph100%29.67 "Hg10 mi
6:53 am72 °FLight rain. Fog.12 mph100%29.65 "Hg6 mi
6:34 am73 °FLight rain. Fog.12 mph100%29.67 "Hg5 mi
5:53 am72 °FLight rain. Fog.7 mph100%29.66 "Hg5 mi
5:43 am72 °FFog.6 mph100%29.67 "Hg5 mi
5:01 am72 °FFog.7 mph100%29.68 "Hg5 mi
4:36 am71 °FFog.6 mph100%29.68 "Hg6 mi
4:16 am71 °FFog.6 mph100%29.69 "Hg6 mi
3:53 am71 °FMostly cloudy.8 mph100%29.69 "Hg7 mi
2:53 am70 °FLow clouds.12 mph100%29.71 "Hg10 mi
2:01 am68 °FLight rain. Fog.No wind100%29.74 "Hg6 mi
1:20 am67 °FLight rain. Low clouds.3 mph100%29.76 "Hg9 mi
1:02 am66 °FHeavy rain. Fog.8 mph100%29.78 "Hg2 mi
12:39 am66 °FMostly cloudy.7 mph100%29.79 "Hg10 mi
12:30 am66 °FLight rain. Fog.7 mph100%29.80 "Hg3 mi
12:18 am66 °FHeavy rain. Fog.8 mph100%29.82 "Hg2 mi
12:06 am67 °FLight rain. Mostly cloudy.6 mph97%29.81 "Hg10 mi
10:53 pm
Wed, Aug 16
68 °FClear.6 mph90%29.84 "Hg10 mi
9:53 pm68 °FPassing clouds.6 mph87%29.87 "Hg10 mi
8:53 pm67 °FClear.9 mph90%29.89 "Hg10 mi
Weather by CustomWeather, © 2017

See weather overviewHow to use our weather pages